DW1449 Weather Reports


Display with metric or nautical units.
time (UTC)temp
F
wind
direction
speed
MPH
gust
MPH
rain 1hr
in
rain 24hr
in
rain mn
in
humidity
%
barometer
mb
20260901030054 56 0.0 0.0 0.00 0.25 0.00 98 1009.8
20260901024555 56 0.0 0.0 0.00 0.24 0.00 98 1009.6
20260901023053 56 0.0 0.0 0.00 0.24 0.00 98 1009.5
20260901021558 57 0.0 0.0 0.00 0.24 0.00 98 1009.6
20260901020109 57 0.0 0.0 0.00 0.24 0.00 98 1009.7
20260901014552 57 0.0 0.0 0.00 0.24 0.00 98 1009.5
20260901013101 57 0.0 0.0 0.00 0.24 0.00 98 1009.4
20260901011554 58 0.0 0.0 0.00 0.24 0.00 98 1009.5
20260901010101 58 0.0 0.0 0.00 0.24 0.00 98 1009.4
20260901004607 58 0.0 0.0 0.00 0.24 0.00 98 1009.5
20260901003051 58 0.0 0.0 0.00 0.24 0.00 98 1009.4
20260901001548 57 0.0 0.0 0.00 0.24 0.00 98 1009.2
20260901000112 57 0.0 0.0 0.00 0.24 0.00 98 1009.3
20260831234557 57 0.0 0.0 0.00 0.24 0.00 98 1009.3
20260831233052 57 0.0 0.0 0.00 0.24 0.00 98 1009.2
20260831231552 57 0.0 0.0 0.00 0.24 0.00 97 1009.3
20260831230047 57 0.0 0.0 0.00 0.24 0.00 97 1009.2
20260831224555 56 0.0 0.0 0.00 0.24 0.00 97 1009.2
20260831223059 56 0.0 0.0 0.00 0.24 0.00 97 1009.3
20260831221553 56 0.0 0.0 0.00 0.24 0.00 97 1009.5
20260831220052 56 0.0 0.0 0.00 0.24 0.00 97 1009.5
20260831214602 56 0.0 0.0 0.00 0.24 0.24 96 1009.4
20260831213059 56 0.0 0.0 0.00 0.24 0.24 96 1009.2
20260831211604 56 0.0 0.0 0.00 0.24 0.24 96 1009.1
20260831210051 57 0.0 0.0 0.00 0.24 0.24 96 1009.3
20260831204556 57 0.0 0.0 0.00 0.24 0.24 96 1009.3
20260831203054 57 0.0 0.0 0.00 0.24 0.24 95 1009.2
20260831201554 57 0.0 0.0 0.00 0.24 0.24 95 1009.2
20260831200055 57 0.0 0.0 0.00 0.24 0.24 95 1008.9
20260831194632 58 0.0 0.0 0.00 0.24 0.24 95 1009.0
20260831193104 58 0.0 0.0 0.00 0.24 0.24 95 1009.0
20260831191600 58 0.0 0.0 0.00 0.24 0.24 95 1008.7
20260831190113 58 0.0 0.0 0.00 0.24 0.24 93 1008.6
20260831184558 58 0.0 0.0 0.00 0.24 0.24 92 1008.6
20260831183058 58 0.0 0.0 0.00 0.24 0.24 91 1008.5
20260831181548 59 0.0 0.0 0.05 0.24 0.24 91 1008.4
20260831180055 59 0.0 0.0 0.06 0.24 0.24 89 1008.2
20260831174553 60 0.0 0.0 0.06 0.24 0.24 88 1008.0
20260831173049 60 0.0 0.0 0.06 0.24 0.24 87 1007.6
20260831171557 63 0.0 0.0 0.00 0.18 0.18 91 1008.3
20260831170055 64 0.0 0.0 0.00 0.18 0.18 90 1008.3
20260831164559 64 0.0 0.0 0.00 0.18 0.18 90 1008.0
20260831163054 64 0.0 0.0 0.00 0.18 0.18 89 1008.1
20260831161552 64 0.0 0.0 0.00 0.18 0.18 90 1008.1
20260831160109 65 0.0 0.0 0.07 0.18 0.18 89 1008.4
20260831154706 65 0.0 0.0 0.17 0.20 0.18 90 1008.3
20260831153111 64 0.0 0.0 0.17 0.20 0.18 90 1008.3
20260831151552 64 0.0 0.0 0.17 0.20 0.18 89 1008.0
20260831150058 66 0.0 0.0 0.08 0.11 0.09 85 1008.5
20260831144556 66 0.0 0.0 0.00 0.05 0.00 84 1008.2
20260831143110 66 0.0 0.0 0.00 0.05 0.00 83 1008.3
20260831141611 67 0.0 0.0 0.00 0.05 0.00 82 1008.3
20260831140057 67 0.0 0.0 0.00 0.05 0.00 83 1008.4
20260831134604 67 0.0 0.0 0.00 0.05 0.00 83 1008.3
20260831133055 67 0.0 0.0 0.00 0.05 0.00 81 1008.4
20260831131549 68 0.0 0.0 0.00 0.05 0.00 79 1008.4
20260831130059 67 0.0 0.0 0.00 0.05 0.00 81 1008.5
20260831124608 67 0.0 0.0 0.00 0.05 0.00 83 1008.3
20260831123051 67 0.0 0.0 0.00 0.05 0.00 86 1008.2
20260831121559 66 0.0 0.0 0.00 0.05 0.00 91 1008.6
20260831120057 64 0.0 0.0 0.00 0.04 0.00 92 1008.7
20260831114554 64 0.0 0.0 0.00 0.13 0.00 91 1008.9
20260831113054 64 0.0 0.0 0.00 0.13 0.00 91 1008.9
20260831111601 64 0.0 0.0 0.00 0.13 0.00 91 1008.8
20260831110057 64 0.0 0.0 0.00 0.13 0.00 91 1008.9
20260831104551 64 0.0 0.0 0.00 0.14 0.00 92 1009.0
20260831103058 63 0.0 0.0 0.00 0.14 0.00 93 1009.0
20260831101613 63 0.0 0.0 0.00 0.14 0.00 95 1009.2
20260831100108 63 0.0 0.0 0.00 0.14 0.00 96 1009.1
20260831094553 62 0.0 0.0 0.00 0.14 0.00 96 1009.2
20260831093053 62 0.0 0.0 0.00 0.14 0.00 97 1009.2
20260831091559 61 0.0 0.0 0.00 0.14 0.00 97 1009.5
20260831090106 61 0.0 0.0 0.00 0.14 0.00 97 1009.5
20260831084556 61 0.0 0.0 0.00 0.21 0.00 97 1009.5
20260831083056 61 0.0 0.0 0.00 0.21 0.00 98 1009.6
20260831081555 61 0.0 0.0 0.00 0.21 0.00 98 1009.8
20260831080105 60 0.0 0.0 0.00 0.21 0.00 98 1009.7
20260831074600 60 0.0 0.0 0.00 0.22 0.00 98 1009.8
20260831073104 60 0.0 0.0 0.00 0.22 0.00 98 1009.8
20260831071552 59 0.0 0.0 0.00 0.22 0.00 98 1009.9
20260831070051 59 0.0 0.0 0.00 0.22 0.00 98 1009.8
20260831064559 59 0.0 0.0 0.00 0.25 0.00 98 1009.7
20260831063055 58 0.0 0.0 0.00 0.25 0.00 98 1009.6
20260831061600 58 0.0 0.0 0.00 0.25 0.00 98 1009.7
20260831060110 57 0.0 0.0 0.00 0.25 0.00 98 1009.6
20260831054558 57 0.0 0.0 0.00 0.26 0.00 98 1009.8
20260831053050 56 0.0 0.0 0.00 0.26 0.00 98 1009.8
20260831051617 56 0.0 0.0 0.00 0.26 0.00 98 1010.0
20260831050058 56 0.0 0.0 0.00 0.26 0.00 98 1010.3
20260831044553 56 0.0 0.0 0.00 0.26 0.00 98 1010.0
20260831043100 56 0.0 0.0 0.00 0.26 0.00 98 1010.0
20260831041559 56 0.0 0.0 0.00 0.26 0.00 98 1009.8
20260831040054 57 0.0 0.0 0.00 0.26 0.00 98 1009.9
20260831034559 57 0.0 0.0 0.00 0.26 0.00 98 1009.9
20260831033051 57 0.0 0.0 0.00 0.26 0.00 98 1010.1
20260831031549 57 0.0 0.0 0.00 0.26 0.00 98 1010.1